Orbital Elements at Epoch 2459000.5 (2020-May-31.0) TDB
Reference: JPL 15 (heliocentric ecliptic J2000)
Element | Value | Uncertainty (1-sigma) | Units |
e | .2211996953788808 | 6.5345e-08 | |
a | 2.649588798780216 | 1.9598e-08 | au |
q | 2.063500563610737 | 1.7678e-07 | au |
i | 1.250735324780871 | 6.2532e-06 | deg |
node | 279.673239478882 | 0.00032509 | deg |
peri | 69.94322278809076 | 0.00032549 | deg |
M | 20.52536439210997 | 1.5192e-05 | deg |
tp | 2458910.683832248829 (2020-Mar-02.18383225) | 6.5987e-05 | TDB |
period | 1575.310419475474 4.31 | 1.7478e-05 4.785e-08 | d yr |
n | .2285263879101796 | 2.5354e-09 | deg/d |
Q | 3.235677033949695 | 2.3933e-08 | au |
|
| | Orbit Determination Parameters
Additional Information
|